Terminal Aerodrome Forecast
Issued by NWS Atlanta, GA

Home | Current Version | Previous Version | Text Only | Print | Product List | Glossary On
Versions: 1 2 3 4 5 6 7 8 9 10 11 12 13 14 15 16 17 18 19 20 21 22 23 24 25 26 27 28 29 30 31 32 33 34 35 36 37 38 39 40 41 42 43 44 45
000
FTUS42 KFFC 022300
TAFATL
TAF
KATL 022320Z 0300/0406 28006KT P6SM SCT100 BKN200
     FM030100 25003KT P6SM BKN150
     FM031500 30005KT P6SM SCT035
     FM031900 26005KT P6SM BKN045 PROB30 0319/0323 4SM -TSRA
      BKN040CB
     FM040100 VRB03KT P6SM FEW050 SCT100 SCT250=

USA.gov is the U.S. government's official web portal to all federal, state and local government web resources and services.